Date String (YYYY-MM-DD hh:mm:ss) UTC,Instrument flags,Ambient pressure (hPa),Sample flow (lpm),Bypass flow (lpm),Sample temperature (°C),Ambient temperature (°C),ASC tube jacket temperature (°C),LED temperature (°C),Box temperature (°C),Sample RH (%),Span deviation,Mass concentration (μg/m³),Mass concentration (μg/m³),Mass concentration (μg/m³)
DateTimeUTC,F1_M11,P_M11,Q1_M11,Q2_M11,T1_M11,T2_M11,T3_M11,T4_M11,T5_M11,U1_M11,ZSPAN_M11,X0_M11,X2_M11,X1_M11
2022-08-17 15:00:00,,0833.6,4.99,0.00,31.2,27.7,00.0,39.4,32.0,34.4,0001.2,0015.83,0009.87,0009.13
2022-08-17 15:01:00,,0833.6,5.01,0.00,31.1,27.7,00.0,39.4,31.9,34.4,0001.2,0016.00,0009.96,0009.17
2022-08-17 15:02:00,,0833.6,5.00,0.00,31.0,27.8,00.0,39.3,31.9,34.6,0001.1,0015.86,0009.93,0009.18
2022-08-17 15:03:00,,0833.6,4.99,0.00,31.0,27.9,00.0,39.3,31.9,34.7,0000.9,0015.68,0009.86,0009.11
2022-08-17 15:04:00,,0833.6,4.99,0.00,30.9,28.1,00.0,39.3,31.9,34.8,0001.0,0015.43,0009.76,0009.05
2022-08-17 15:05:00,,0833.6,5.00,0.00,30.9,28.2,00.0,39.3,32.0,34.9,0001.2,0014.87,0009.64,0009.00
2022-08-17 15:06:00,,0833.6,5.01,0.00,30.9,28.3,00.0,39.3,32.0,35.0,0001.3,0014.70,0009.62,0008.96
2022-08-17 15:07:00,,0833.6,5.01,0.00,31.0,28.4,00.0,39.3,32.1,34.9,0001.3,0014.65,0009.61,0008.95
2022-08-17 15:08:00,,0833.6,4.99,0.00,31.1,28.5,00.0,39.3,32.1,34.7,0001.2,0014.93,0009.61,0008.95
2022-08-17 15:09:00,,0833.6,5.00,0.00,31.1,28.6,00.0,39.3,32.1,34.7,0000.9,0015.93,0009.63,0008.94
2022-08-17 15:10:00,,0833.6,5.00,0.00,31.2,28.7,00.0,39.4,32.1,34.5,0001.0,0015.61,0009.58,0008.91
2022-08-17 15:11:00,,0833.6,5.00,0.00,31.2,28.8,00.0,39.4,32.1,34.6,0001.1,0015.58,0009.58,0008.89
2022-08-17 15:12:00,,0833.6,4.98,0.00,31.1,28.8,00.0,39.4,32.2,34.4,0000.9,0015.48,0009.51,0008.84
2022-08-17 15:13:00,,0833.6,5.00,0.00,31.1,28.9,00.0,39.4,32.2,34.2,0000.7,0015.68,0009.47,0008.78
2022-08-17 15:14:00,,0833.6,5.00,0.00,31.1,29.0,00.0,39.5,32.2,34.1,0000.8,0015.67,0009.39,0008.73
2022-08-17 15:15:00,,0833.6,4.99,0.00,31.1,29.0,00.0,39.5,32.2,33.8,0000.9,0015.59,0009.34,0008.68
2022-08-17 15:16:00,,0833.6,5.01,0.00,31.1,29.1,00.0,39.5,32.3,33.9,0000.6,0015.62,0009.31,0008.62
2022-08-17 15:17:00,,0833.6,5.00,0.00,31.1,28.9,00.0,39.5,32.2,34.3,0000.4,0015.53,0009.24,0008.58
2022-08-17 15:18:00,,0833.5,5.00,0.00,31.0,28.2,00.0,39.4,32.0,34.2,0000.4,0015.52,0009.21,0008.55
2022-08-17 15:19:00,,0833.5,5.00,0.00,30.9,27.8,00.0,39.4,31.9,34.0,0000.4,0014.88,0009.17,0008.50
2022-08-17 15:20:00,,0833.6,4.99,0.00,30.8,27.7,00.0,39.3,31.8,34.5,0000.6,0013.64,0009.16,0008.46
2022-08-17 15:21:00,,0833.6,5.02,0.00,30.7,27.7,00.0,39.3,31.8,34.8,0000.8,0013.89,0009.17,0008.44
2022-08-17 15:22:00,,0833.6,5.00,0.00,30.7,27.8,00.0,39.3,31.8,34.7,0000.7,0014.89,0009.17,0008.45
2022-08-17 15:23:00,,0833.6,5.00,0.00,30.6,27.9,00.0,39.3,31.8,34.8,0000.9,0015.11,0009.17,0008.47
2022-08-17 15:24:00,,0833.6,5.01,0.00,30.6,28.1,00.0,39.2,31.8,35.1,0001.0,0015.08,0009.23,0008.53
2022-08-17 15:25:00,,0833.6,5.01,0.00,30.6,28.2,00.0,39.2,31.9,35.3,0001.2,0015.71,0009.26,0008.55
2022-08-17 15:26:00,,0833.6,4.97,0.00,30.9,28.3,00.0,39.2,32.1,34.5,0001.2,0015.90,0009.25,0008.55
2022-08-17 15:27:00,,0833.6,5.02,0.00,31.0,28.4,00.0,39.2,32.1,34.2,0001.3,0016.30,0009.23,0008.54
2022-08-17 15:28:00,,0833.6,5.00,0.00,31.0,28.5,00.0,39.2,32.1,34.4,0001.4,0016.84,0009.29,0008.57
2022-08-17 15:29:00,,0833.6,5.00,0.00,31.1,28.6,00.0,39.3,32.1,34.4,0001.5,0016.93,0009.30,0008.61
2022-08-17 15:30:00,,0833.6,5.00,0.00,31.1,28.7,00.0,39.3,32.1,34.1,0001.5,0018.10,0009.39,0008.70
2022-08-17 15:31:00,,0833.6,5.00,0.00,31.1,28.8,00.0,39.3,32.1,34.2,0001.6,0018.23,0009.48,0008.81
2022-08-17 15:32:00,,0833.5,5.00,0.00,31.1,28.8,00.0,39.3,32.1,34.1,0001.7,0018.22,0009.54,0008.91
2022-08-17 15:33:00,,0833.6,4.99,0.00,31.1,28.9,00.0,39.4,32.1,33.7,0001.8,0017.53,0009.59,0008.93
2022-08-17 15:34:00,,0833.5,5.00,0.00,31.0,29.0,00.0,39.4,32.2,33.8,0001.8,0016.96,0009.62,0008.94
2022-08-17 15:35:00,,0833.6,5.00,0.00,31.0,29.0,00.0,39.4,32.2,34.4,0001.7,0016.93,0009.62,0008.94
2022-08-17 15:36:00,,0833.6,5.00,0.00,31.0,28.7,00.0,39.4,32.1,34.7,0001.2,0016.67,0009.62,0008.95
2022-08-17 15:37:00,,0833.5,5.01,0.00,31.0,28.0,00.0,39.3,31.9,34.6,0000.8,0016.80,0009.68,0009.00
2022-08-17 15:38:00,,0833.5,4.99,0.00,30.9,27.7,00.0,39.3,31.9,35.1,0001.0,0017.09,0009.73,0009.04
2022-08-17 15:39:00,,0833.5,5.02,0.00,31.0,27.6,00.0,39.3,31.9,35.2,0001.3,0016.85,0009.72,0009.06
2022-08-17 15:40:00,,0833.5,4.99,0.00,31.2,27.7,00.0,39.3,32.0,34.2,0001.4,0016.79,0009.65,0008.98
2022-08-17 15:41:00,,0833.6,4.99,0.00,31.3,27.8,00.0,39.3,32.0,33.6,0001.7,0015.95,0009.57,0008.87
2022-08-17 15:42:00,,0833.6,5.02,0.00,31.3,28.0,00.0,39.3,32.0,33.7,0001.7,0016.15,0009.50,0008.75
2022-08-17 15:43:00,,0833.6,5.00,0.00,31.3,28.1,00.0,39.3,32.0,33.2,0001.4,0016.19,0009.41,0008.63
2022-08-17 15:44:00,,0833.5,5.00,0.00,31.4,28.3,00.0,39.4,32.1,33.4,0001.6,0016.04,0009.30,0008.54
2022-08-17 15:45:00,,0833.6,5.00,0.00,31.3,28.4,00.0,39.4,32.1,33.3,0001.9,0015.81,0009.16,0008.44
2022-08-17 15:46:00,,0833.6,5.00,0.00,31.3,28.5,00.0,39.4,32.1,33.8,0002.0,0015.65,0009.06,0008.34
2022-08-17 15:47:00,,0833.5,5.01,0.00,31.3,28.6,00.0,39.5,32.1,34.2,0002.3,0015.43,0008.99,0008.26
2022-08-17 15:48:00,,0833.5,5.00,0.00,31.2,28.7,00.0,39.5,32.1,33.8,0002.3,0015.00,0008.98,0008.22
2022-08-17 15:49:00,,0833.6,5.01,0.00,31.2,28.8,00.0,39.5,32.1,34.0,0002.2,0014.47,0008.93,0008.16
2022-08-17 15:50:00,,0833.6,5.00,0.00,31.2,28.8,00.0,39.5,32.2,33.8,0002.1,0014.15,0008.89,0008.11
2022-08-17 15:51:00,,0833.6,5.00,0.00,31.2,28.9,00.0,39.5,32.2,34.2,0001.9,0014.03,0008.89,0008.12
2022-08-17 15:52:00,,0833.6,5.00,0.00,31.2,28.6,00.0,39.5,32.1,33.8,0001.7,0014.33,0008.83,0008.11
2022-08-17 15:53:00,,0833.6,5.00,0.00,31.1,27.9,00.0,39.4,31.9,33.8,0001.7,0013.91,0008.80,0008.12
2022-08-17 15:54:00,,0833.6,5.01,0.00,31.0,27.6,00.0,39.4,31.8,34.2,0001.7,0014.35,0008.82,0008.17
2022-08-17 15:55:00,,0833.5,5.00,0.00,30.9,27.5,00.0,39.4,31.7,34.2,0001.4,0014.47,0008.88,0008.23
2022-08-17 15:56:00,,0833.6,4.99,0.00,30.8,27.6,00.0,39.3,31.8,34.3,0001.2,0014.90,0008.93,0008.27
2022-08-17 15:57:00,,0833.5,4.99,0.00,30.7,27.8,00.0,39.3,31.7,34.0,0001.4,0015.17,0008.91,0008.27
2022-08-17 15:58:00,,0833.5,5.00,0.00,30.7,27.9,00.0,39.3,31.8,34.4,0001.7,0015.15,0008.85,0008.22
2022-08-17 15:59:00,,0833.5,5.00,0.00,30.6,28.1,00.0,39.3,31.9,34.3,0001.7,0014.94,0008.72,0008.11
